Location: Bay Shore Mobile Home Park
(38.5762°N, 75.0841°W)
Time: 03:57:47
(UTC+00:00)

ISS - Pass Details

Date: 26 January 2026
Orbit: 413 x 429 km, 51.6° (Epoch: 10 February)

Event Time Altitude Azimuth Distance (km) Brightness Sun altitude
Rises 23:11:58 0° 317° (NW) 2,365 0.5 -11.2°
Reaches altitude 10° 23:14:24 10° 333° (NNW) 1,502 -0.8 -11.7°
Maximum altitude 23:17:05 21° 26° (NNE) 994 -2.2 -12.2°
Enters shadow 23:18:04 19° 51° (NE) 1,078 -2.2 -12.4°
